This is the latest recevied weather packets stored in our database for station/object KC0UFP. If no packets are shown the sender has not sent any weather packets the latest 10 day(s).
| Time | Temp. | Humidity | Pressure | Rain* | Wind** | Luminosity | Snow |
|---|---|---|---|---|---|---|---|
| 1777606322 | 13.89° C | 74% | 1016.1 hPa | 0 mm | - | 0 W/m² | - |
| 1777606018 | 13.89° C | 71% | 1016.1 hPa | 0 mm | - | 0 W/m² | - |
| 1777605714 | 13.89° C | 68% | 1016.1 hPa | 0 mm | - | 0 W/m² | - |
| 1777605413 | 13.89° C | 72% | 1016.2 hPa | 0 mm | - | 0 W/m² | - |
| 1777605110 | 13.89° C | 71% | 1016.1 hPa | 0 mm | - | 0 W/m² | - |
| 1777604805 | 13.89° C | 71% | 1016.3 hPa | 0 mm | - | 0 W/m² | - |
| 1777604503 | 13.89° C | 77% | 1016.2 hPa | 0 mm | - | 0 W/m² | - |
| 1777604202 | 13.89° C | 69% | 1015.8 hPa | 0 mm | - | 0 W/m² | - |
| 1777603899 | 13.89° C | 65% | 1016.1 hPa | 0 mm | - | 0 W/m² | - |
| 1777603595 | 13.89° C | 69% | 1015.9 hPa | 0 mm | - | 0 W/m² | - |
| 1777603291 | 13.89° C | 62% | 1016.1 hPa | 0 mm | - | 0 W/m² | - |
| 1777602987 | 14.44° C | 63% | 1016.3 hPa | 0 mm | - | 0 W/m² | - |
| 1777602683 | 14.44° C | 61% | 1016 hPa | 0 mm | - | 0 W/m² | - |
| 1777602377 | 13.89° C | 60% | 1016 hPa | 0 mm | - | 0 W/m² | - |
| 1777602074 | 13.89° C | 62% | 1016.1 hPa | 0 mm | - | 0 W/m² | - |
| 1777601769 | 14.44° C | 60% | 1015.8 hPa | 0 mm | - | 0 W/m² | - |
| 1777601464 | 14.44° C | 63% | 1015.8 hPa | 0 mm | - | 0 W/m² | - |
| 1777601160 | 14.44° C | 61% | 1015.9 hPa | 0 mm | - | 0 W/m² | - |
| 1777600858 | 15° C | 62% | 1016.1 hPa | 0 mm | - | 0 W/m² | - |
| 1777600553 | 15° C | 59% | 1015.9 hPa | 0 mm | - | 0 W/m² | - |
| 1777600249 | 15° C | 61% | 1015.9 hPa | 0 mm | - | 0 W/m² | - |
| 1777599945 | 15° C | 57% | 1015.8 hPa | 0 mm | - | 0 W/m² | - |
| 1777599642 | 15° C | 59% | 1015.8 hPa | 0 mm | - | 0 W/m² | - |
| 1777599338 | 15° C | 60% | 1015.6 hPa | 0 mm | - | 0 W/m² | - |
| 1777599035 | 15° C | 57% | 1015.8 hPa | 0 mm | - | 0 W/m² | - |
* Rain latest hour (hover to see other rain measurements)
** Current wind speed in m/s (hover to see current wind gust speed)